Location: Bocianicha
(51.5066°N, 19.2563°E)
Time: 14:38:45
(UTC+00:00)

ATLAS 3B R/B - Pass Details

Date: 15 June 2025
Orbit: 935 x 1258 km, 63.8° (Epoch: 17 July)

Event Time Altitude Azimuth Distance (km) Brightness Sun altitude
Rises 00:53:15 0° 315° (NW) 4,220 6.0 -9.9°
Reaches altitude 10° 00:56:18 10° 307° (NW) 3,246 5.3 -9.7°
Maximum altitude 01:03:17 36° 245° (WSW) 1,843 3.6 -9.1°
Drops below altitude 10° 01:10:01 10° 182° (S) 3,118 4.6 -8.6°
Sets 01:12:54 0° 174° (S) 4,035 5.3 -8.3°
